GW4465 Weather Reports


time (UTC)temp
C
wind
direction
speed
KPH
gust
KPH
rain 1hr
cm
rain 24hr
cm
rain mn
cm
humidity
%
barometer
mb
20260505122102 7 351 3.2 4.8 0.00 0.00 0.00 96 1017.4
20260505121558 6 10 0.0 4.8 0.00 0.00 0.00 96 1017.3
20260505121055 6 16 4.8 4.8 0.00 0.00 0.00 96 1017.4
20260505120551 6 30 4.8 6.4 0.00 0.00 0.00 97 1017.2
20260505120047 6 29 8.0 8.0 0.00 0.00 0.00 97 1017.3
20260505115542 6 39 4.8 8.0 0.00 0.00 0.00 97 1017.0
20260505115039 5 350 4.8 6.4 0.00 0.00 0.00 97 1017.2
20260505114536 5 37 4.8 8.0 0.00 0.00 0.00 97 1017.2
20260505114032 5 340 0.0 4.8 0.00 0.00 0.00 97 1017.1
20260505113529 5 0 4.8 6.4 0.00 0.00 0.00 96 1017.0
20260505113026 5 328 6.4 8.0 0.00 0.00 0.00 96 1016.9
20260505112522 5 7 4.8 6.4 0.00 0.00 0.00 97 1016.9
20260505112020 5 353 4.8 6.4 0.00 0.00 0.00 97 1016.8
20260505111514 5 359 4.8 4.8 0.00 0.00 0.00 96 1016.7
20260505111011 5 7 4.8 4.8 0.00 0.00 0.00 96 1016.8
20260505110508 5 353 4.8 4.8 0.00 0.00 0.00 96 1016.8
20260505101939 6 30 4.8 4.8 0.00 0.00 0.00 95 1016.8
20260505101432 6 357 4.8 4.8 0.00 0.00 0.00 95 1016.6
20260505100928 6 323 4.8 8.0 0.00 0.00 0.00 95 1016.6
20260505100425 6 357 4.8 6.4 0.00 0.00 0.00 95 1016.7
20260505095921 6 342 4.8 4.8 0.00 0.00 0.00 94 1016.5
20260505095418 6 340 4.8 6.4 0.00 0.00 0.00 94 1016.6
20260505094914 6 358 4.8 4.8 0.00 0.00 0.00 94 1016.7
20260505094411 6 344 6.4 8.0 0.00 0.00 0.00 93 1016.7
20260505093907 7 353 4.8 8.0 0.00 0.00 0.00 93 1016.8
20260505093404 7 332 0.0 4.8 0.00 0.00 0.00 93 1016.5
20260505092901 7 343 4.8 9.7 0.00 0.00 0.00 93 1016.8
20260505092359 7 25 4.8 6.4 0.00 0.00 0.00 93 1016.5
20260505091856 7 180 3.2 9.7 0.00 0.00 0.00 93 1016.6
20260505091354 7 279 8.0 9.7 0.00 0.00 0.00 92 1016.7
20260505090852 7 54 8.0 8.0 0.00 0.00 0.00 93 1016.6
20260505090350 7 22 4.8 6.4 0.00 0.00 0.00 93 1016.8
20260505085847 7 334 0.0 4.8 0.00 0.00 0.00 92 1016.6
20260505085345 7 304 4.8 6.4 0.00 0.00 0.00 93 1016.6
20260505084842 7 6 4.8 8.0 0.00 0.00 0.00 92 1016.7
20260505084341 7 43 8.0 11.3 0.00 0.00 0.00 93 1016.6
20260505083838 7 20 3.2 4.8 0.00 0.00 0.00 93 1016.5
20260505083335 7 35 3.2 8.0 0.00 0.00 0.00 92 1016.7
20260505082831 7 351 4.8 4.8 0.00 0.00 0.00 92 1016.6
20260505082328 7 18 4.8 6.4 0.00 0.00 0.00 92 1016.4
20260505081824 7 357 3.2 4.8 0.00 0.00 0.00 91 1016.7
20260505081321 7 337 3.2 6.4 0.00 0.00 0.00 91 1016.5
20260505080818 7 334 4.8 6.4 0.00 0.00 0.00 91 1016.6
20260505080315 7 329 4.8 4.8 0.00 0.00 0.00 90 1016.6
20260505075810 7 303 6.4 8.0 0.00 0.00 0.00 90 1016.5
20260505075307 8 343 6.4 8.0 0.00 0.00 0.00 89 1016.3
20260505074804 8 358 0.0 8.0 0.00 0.00 0.00 89 1016.5
20260505074301 8 318 4.8 6.4 0.00 0.00 0.00 89 1016.4
20260505073758 8 320 6.4 8.0 0.00 0.00 0.00 89 1016.4
20260505073256 8 358 4.8 6.4 0.00 0.00 0.00 89 1016.4
20260505072753 8 318 6.4 8.0 0.00 0.00 0.00 89 1016.4
20260505072249 8 30 4.8 6.4 0.00 0.00 0.00 89 1016.4
20260505071745 8 308 8.0 8.0 0.00 0.00 0.00 88 1016.3
20260505071241 8 334 4.8 4.8 0.00 0.00 0.00 87 1016.5
20260505070739 8 338 3.2 4.8 0.00 0.00 0.00 87 1016.4
20260505070235 8 336 3.2 4.8 0.00 0.00 0.00 87 1016.4
20260505065731 8 357 3.2 8.0 0.00 0.00 0.00 87 1016.4
20260505065228 8 31 4.8 4.8 0.00 0.00 0.00 87 1016.2
20260505064725 8 0 4.8 4.8 0.00 0.00 0.00 86 1016.5
20260505064223 8 0 6.4 8.0 0.00 0.00 0.00 86 1016.4
20260505063721 9 340 6.4 8.0 0.00 0.00 0.00 86 1016.4
20260505063217 9 12 0.0 6.4 0.00 0.00 0.00 85 1016.3
20260505062713 9 359 4.8 8.0 0.00 0.00 0.00 85 1016.5
20260505062211 9 317 6.4 8.0 0.00 0.00 0.00 85 1016.5
20260505061708 9 336 4.8 6.4 0.00 0.00 0.00 84 1016.5
20260505061206 10 4 4.8 6.4 0.00 0.00 0.00 83 1016.6
20260505060703 10 313 8.0 8.0 0.00 0.00 0.00 83 1016.5
20260505060200 10 13 3.2 8.0 0.00 0.00 0.00 82 1016.6
20260505055655 10 1 4.8 6.4 0.00 0.00 0.00 82 1016.5
20260505055152 10 357 4.8 6.4 0.00 0.00 0.00 82 1016.4
20260505054649 10 15 0.0 6.4 0.00 0.00 0.00 82 1016.5
20260505054147 10 11 3.2 4.8 0.00 0.00 0.00 82 1016.5
20260505053644 10 353 0.0 3.2 0.00 0.00 0.00 82 1016.6
20260505053141 10 324 3.2 4.8 0.00 0.00 0.00 83 1016.6
20260505052638 10 345 0.0 0.0 0.00 0.00 0.00 82 1016.7
20260505052135 10 344 4.8 4.8 0.00 0.00 0.00 82 1016.8
20260505051632 10 345 4.8 4.8 0.00 0.00 0.00 82 1016.6
20260505051130 10 10 0.0 4.8 0.00 0.00 0.00 81 1016.6
20260505050627 10 336 3.2 8.0 0.00 0.00 0.00 81 1016.5
20260505050126 10 35 6.4 6.4 0.00 0.00 0.00 81 1016.5
20260505041555 12 14 4.8 4.8 0.00 0.00 0.00 74 1016.5
20260505041053 12 299 4.8 6.4 0.00 0.00 0.00 75 1016.4
20260505040550 12 33 4.8 4.8 0.00 0.00 0.00 73 1016.6
20260505040047 12 19 3.2 4.8 0.00 0.00 0.00 72 1016.7
20260505035543 12 18 4.8 4.8 0.00 0.00 0.00 72 1016.5
20260505035040 13 330 4.8 6.4 0.00 0.00 0.00 68 1016.5
20260505034536 13 349 6.4 8.0 0.00 0.00 0.00 68 1016.5
20260505034033 13 318 0.0 3.2 0.00 0.00 0.00 64 1016.5
20260505033530 13 68 4.8 4.8 0.00 0.00 0.00 65 1016.5
20260505033029 13 55 0.0 3.2 0.00 0.00 0.00 64 1016.7
20260505032526 13 92 4.8 8.0 0.00 0.00 0.00 63 1016.6
20260505032022 13 351 0.0 4.8 0.00 0.00 0.00 63 1016.6
20260505031520 13 231 0.0 4.8 0.00 0.00 0.00 64 1016.8
20260505031016 13 232 0.0 4.8 0.00 0.00 0.00 65 1016.8
20260505030513 13 318 4.8 8.0 0.00 0.00 0.00 65 1016.8
20260505030009 13 64 4.8 6.4 0.00 0.00 0.00 66 1016.8
20260505025505 13 339 0.0 4.8 0.00 0.00 0.00 66 1016.8
20260505025004 13 47 0.0 4.8 0.00 0.00 0.00 68 1016.6
20260505024500 13 46 4.8 6.4 0.00 0.00 0.00 67 1016.8
20260505023957 13 17 4.8 4.8 0.00 0.00 0.00 69 1016.6
20260505023454 13 312 9.7 11.3 0.00 0.00 0.00 69 1016.7
20260505022952 13 325 4.8 8.0 0.00 0.00 0.00 67 1016.7
20260505022449 13 326 3.2 4.8 0.00 0.00 0.00 67 1016.5
20260505021946 14 0 0.0 4.8 0.00 0.00 0.00 67 1016.6
20260505021443 14 333 0.0 4.8 0.00 0.00 0.00 66 1016.6
20260505020938 14 337 0.0 3.2 0.00 0.00 0.00 66 1016.5
20260505020434 14 341 0.0 4.8 0.00 0.00 0.00 65 1016.5
20260505015931 14 329 3.2 4.8 0.00 0.00 0.00 65 1016.5
20260505015428 14 346 0.0 3.2 0.00 0.00 0.00 66 1016.4
20260505014926 14 25 0.0 3.2 0.00 0.00 0.00 66 1016.2
20260505014422 15 40 0.0 0.0 0.00 0.00 0.00 65 1016.4
20260505013919 15 306 0.0 6.4 0.00 0.00 0.00 65 1016.3
20260505013416 15 323 0.0 4.8 0.00 0.00 0.00 64 1016.1
20260505012914 15 314 4.8 4.8 0.00 0.00 0.00 65 1016.1
20260505012412 15 318 0.0 4.8 0.00 0.00 0.00 65 1016.2
20260505011908 15 324 0.0 4.8 0.00 0.00 0.00 64 1015.9
20260505011405 15 305 4.8 6.4 0.00 0.00 0.00 64 1015.6
20260505010901 15 344 4.8 4.8 0.00 0.00 0.00 63 1016.1
20260505010357 15 323 3.2 4.8 0.00 0.00 0.00 63 1015.9
20260505005853 15 337 4.8 4.8 0.00 0.00 0.00 63 1015.9
20260505005350 16 315 3.2 4.8 0.00 0.00 0.00 63 1015.8
20260505004848 16 334 3.2 6.4 0.00 0.00 0.00 62 1015.5
20260505004344 16 301 0.0 6.4 0.00 0.00 0.00 61 1015.5
20260505003841 16 279 4.8 4.8 0.00 0.00 0.00 61 1015.5
20260505003339 16 314 4.8 4.8 0.00 0.00 0.00 62 1015.2
20260505002834 17 339 4.8 8.0 0.00 0.00 0.00 61 1015.3
20260505002331 17 132 0.0 0.0 0.00 0.00 0.00 59 1015.3
20260505001830 17 288 3.2 4.8 0.00 0.00 0.00 60 1015.3
20260505001326 17 312 0.0 8.0 0.00 0.00 0.00 60 1014.9
20260505000824 17 303 3.2 4.8 0.00 0.00 0.00 60 1015.2
20260505000321 17 43 6.4 6.4 0.00 0.00 0.00 60 1015.0
20260504235818 18 317 0.0 6.4 0.00 0.00 0.00 60 1015.0
20260504235315 18 27 0.0 4.8 0.00 0.00 0.00 59 1015.0
20260504234811 18 338 6.4 6.4 0.00 0.00 0.00 57 1014.7
20260504234309 18 296 0.0 8.0 0.00 0.00 0.00 57 1014.8
20260504233805 18 327 4.8 8.0 0.00 0.00 0.00 56 1014.8
20260504233301 19 345 0.0 8.0 0.00 0.00 0.00 56 1014.7
20260504232758 19 312 4.8 8.0 0.00 0.00 0.00 55 1014.8
20260504232255 20 320 8.0 11.3 0.00 0.00 0.00 53 1014.6
20260504231752 20 322 8.0 8.0 0.00 0.00 0.00 53 1014.6
20260504231249 20 303 4.8 4.8 0.00 0.00 0.00 53 1014.7
20260504230744 20 293 0.0 8.0 0.00 0.00 0.00 52 1014.5
20260504230243 21 14 3.2 6.4 0.00 0.00 0.00 48 1014.6
20260504225741 21 338 8.0 14.5 0.00 0.00 0.00 43 1014.2
20260504225237 21 6 6.4 8.0 0.00 0.00 0.00 43 1014.5
20260504224734 21 11 3.2 8.0 0.00 0.00 0.00 44 1014.2
20260504224231 21 22 4.8 14.5 0.00 0.00 0.00 44 1014.6
20260504223727 21 338 8.0 9.7 0.00 0.00 0.00 43 1014.5
20260504223223 22 347 3.2 9.7 0.00 0.00 0.00 42 1014.5
20260504222720 22 342 9.7 14.5 0.00 0.00 0.00 40 1014.2
20260504222217 22 29 3.2 12.9 0.00 0.00 0.00 39 1014.4
20260504221715 22 327 8.0 11.3 0.00 0.00 0.00 40 1014.2
20260504221212 22 7 4.8 12.9 0.00 0.00 0.00 38 1014.4
20260504220708 22 315 8.0 16.1 0.00 0.00 0.00 37 1014.4
20260504220206 22 8 4.8 6.4 0.00 0.00 0.00 38 1014.2
20260504215702 23 0 8.0 9.7 0.00 0.00 0.00 36 1014.1
20260504215200 23 316 4.8 14.5 0.00 0.00 0.00 39 1014.1
20260504214655 23 340 8.0 12.9 0.00 0.00 0.00 36 1014.2
20260504214152 23 1 4.8 9.7 0.00 0.00 0.00 36 1014.0
20260504213649 23 300 8.0 11.3 0.00 0.00 0.00 32 1014.1
20260504213145 23 32 6.4 6.4 0.00 0.00 0.00 28 1014.4
20260504212642 23 45 8.0 11.3 0.00 0.00 0.00 28 1014.1
20260504212138 23 51 4.8 6.4 0.00 0.00 0.00 31 1014.2
20260504211636 23 125 8.0 8.0 0.00 0.00 0.00 29 1014.1
20260504211132 23 202 0.0 12.9 0.00 0.00 0.00 34 1014.0
20260504210630 23 53 8.0 8.0 0.00 0.00 0.00 25 1014.1
20260504210126 23 18 8.0 11.3 0.00 0.00 0.00 28 1014.2
20260504205624 24 357 8.0 8.0 0.00 0.00 0.00 26 1014.1
20260504205121 24 44 0.0 8.0 0.00 0.00 0.00 22 1014.0
20260504204620 24 353 6.4 8.0 0.00 0.00 0.00 25 1014.0
20260504204118 24 8 4.8 11.3 0.00 0.00 0.00 22 1014.2
20260504203617 24 308 0.0 6.4 0.00 0.00 0.00 21 1014.1
20260504203114 25 92 11.3 12.9 0.00 0.00 0.00 22 1014.2
20260504202608 25 17 4.8 6.4 0.00 0.00 0.00 23 1014.2
20260504202105 25 273 3.2 11.3 0.00 0.00 0.00 25 1014.1
20260504201602 25 340 8.0 17.7 0.00 0.00 0.00 26 1014.1
20260504201100 25 3 9.7 14.5 0.00 0.00 0.00 29 1014.1
20260504200556 24 55 9.7 9.7 0.00 0.00 0.00 29 1014.2
20260504200053 25 13 4.8 17.7 0.00 0.00 0.00 29 1014.2
20260504195550 25 39 3.2 20.9 0.00 0.00 0.00 28 1014.5
20260504195046 24 25 14.5 14.5 0.00 0.00 0.00 30 1014.6
20260504194543 24 8 12.9 16.1 0.00 0.00 0.00 29 1014.5
20260504194038 25 309 9.7 12.9 0.00 0.00 0.00 29 1014.6
20260504193535 24 12 8.0 11.3 0.00 0.00 0.00 31 1014.7
20260504193034 24 279 8.0 11.3 0.00 0.00 0.00 33 1014.8
20260504192532 23 22 20.9 22.5 0.00 0.00 0.00 31 1014.8
20260504192030 23 61 3.2 9.7 0.00 0.00 0.00 33 1015.0
20260504191527 23 11 11.3 14.5 0.00 0.00 0.00 33 1015.0
20260504191023 23 0 8.0 9.7 0.00 0.00 0.00 35 1015.1
20260504190520 23 357 11.3 20.9 0.00 0.00 0.00 33 1015.3
20260504190015 23 323 4.8 11.3 0.00 0.00 0.00 33 1015.4
20260504185513 23 40 8.0 16.1 0.00 0.00 0.00 34 1015.5
20260504185009 23 327 9.7 11.3 0.00 0.00 0.00 34 1015.6
20260504184504 23 20 11.3 14.5 0.00 0.00 0.00 37 1015.5
20260504184000 23 49 11.3 11.3 0.00 0.00 0.00 36 1015.6
20260504183457 23 305 4.8 8.0 0.00 0.00 0.00 36 1015.9
20260504182955 22 27 9.7 14.5 0.00 0.00 0.00 36 1015.9
20260504182452 22 61 11.3 17.7 0.00 0.00 0.00 35 1016.1
20260504181949 22 65 11.3 12.9 0.00 0.00 0.00 35 1016.2
20260504181446 22 300 0.0 4.8 0.00 0.00 0.00 36 1015.9
20260504180944 22 77 11.3 14.5 0.00 0.00 0.00 36 1016.3
20260504180443 22 41 3.2 9.7 0.00 0.00 0.00 37 1016.2
20260504175941 22 71 4.8 11.3 0.00 0.00 0.00 34 1016.3
20260504175438 22 67 3.2 6.4 0.00 0.00 0.00 36 1016.6
20260504174936 22 65 3.2 9.7 0.00 0.00 0.00 35 1016.4
20260504174433 22 345 6.4 8.0 0.00 0.00 0.00 35 1016.5
20260504173930 22 152 8.0 11.3 0.00 0.00 0.00 35 1016.4
20260504173426 22 110 0.0 12.9 0.00 0.00 0.00 36 1016.9
20260504172924 22 348 3.2 14.5 0.00 0.00 0.00 35 1016.7
20260504172420 22 350 6.4 9.7 0.00 0.00 0.00 35 1016.8
20260504171916 22 308 6.4 8.0 0.00 0.00 0.00 35 1016.9
20260504171414 22 334 8.0 12.9 0.00 0.00 0.00 36 1017.0
20260504170911 21 42 8.0 9.7 0.00 0.00 0.00 38 1016.9
20260504170407 21 60 11.3 11.3 0.00 0.00 0.00 37 1017.2
20260504160326 18 32 9.7 14.5 0.00 0.00 0.00 44 1018.3
20260504150750 14 7 8.0 11.3 0.00 0.00 0.00 52 1019.4
20260504150247 14 294 6.4 8.0 0.00 0.00 0.00 55 1019.1
20260504141217 11 31 4.8 8.0 0.00 0.00 0.00 70 1019.9
20260504140714 10 20 4.8 6.4 0.00 0.00 0.00 71 1019.8
20260504140209 10 7 3.2 4.8 0.00 0.00 0.00 69 1019.8
20260504130637 5 21 6.4 8.0 0.00 0.00 0.00 90 1019.7
20260504130134 5 17 4.8 6.4 0.00 0.00 0.00 90 1019.7